STARLINK-30787, 58128

Orbit data source: Space-Track

STARLINK-30787, 58128 is a payload satellite owned by SpaceX/Seattle (US) in LEO that was launched on Sun, 22 Oct 2023 UTC via an FALCON 9 launch vehicle from the Air Force Eastern Test Range (AFETR). Payload-class satellites include a variety of spacecraft equipped with specific instruments for various scientific and technological missions. These include communications satellites like Starlink; space stations such as the ISS; scientific satellites like the Hubble; Earth observation satellites from companies like Planet Labs, Umbra, and HawkEye 360; GPS; miniature CubeSats for education and research; and military/defense satellites.

Loading next visibility...
Identifier
58128, 2023-162L
Orbit
LEO
Country
Flag of USUS
Related business
Manufacturer
SpaceX/Seattle
Mission
Operational Commercial Communications
Bus & Motor
STARLINK V2M, Unknown motor
Mass
730 kg wet, ~700 kg dry
Launch date (UTC)
2023-10-22 (2 years ago)
Launch vehicle
FALCON 9
Launch site
Air Force Eastern Test Range (AFETR)
Object type
Payload
Rocket body
Debris
Shape & HBR
Box + 2 Pan, 17.7 m
Radar Cross Section
33.884 m², Large (>1 m²)

Expand to show TLE details & history
Last TLE update: 1 day ago

TLE from 1 day ago
0 STARLINK-30787
1 58128U 23162L   25348.40734723  .00001554  00000-0  13009-3 0  9991
2 58128  43.0024 236.2947 0001006 281.0607  79.0122 15.02533697119477
Epoch: 2025-12-14T09:46Z
TLE epoch observation values (Epoch: 2025-12-14T09:46:34.800Z)
Latitude
-0.00004°
Longitude
6.32895°
Altitude
558.732 km
Speed
7.584 km/s
True Right ascension
15h 45m 10s
True Declination
0° 00' 00"
Sunlit
Object was in daylight at epoch
Visualization orbit readout
Latitude
Unknown
Longitude
Unknown
Altitude
Unknown
Speed
Unknown
Apparent Right ascension
Unknown
Apparent Declination
Unknown
Sunlit
N/A
Visualization observer readout
Local Sidereal Time
17:23:10
Azimuth
Unknown
Elevation
Unknown
Doppler factor
Unknown
Orbital elements
Apogee altitude
561.708 km
Perigee altitude
560.312 km
Semi-major axis
6,939.147 km
Eccentricity
0.0001
Inclination
43.0024°
RAAN
236.2947°
Arg. of periapsis
281.0607°
True anomaly
79.02352°
Mean anomaly
79.0122°
Eccentric anomaly
79.01786°
Mean motion
3.75478 °/min
Orbital period
95.88 mins
BSTAR
0.00013009
Loading maneuver chart data...
Computing Atmospheric mass density...
Loading historical data...
Loading historical data...
Loading historical data...
Loading historical data...
Loading historical data...
Loading historical data...
Loading historical data...

Documentation

Showing up to 5 results
|